Regional Weather Roundup
Issued by NWS

Home | Current Version | Previous Version | Text Only | Print | Product List | Glossary Off
Versions: 1 2 3 4 5 6 7 8 9 10 11 12 13 14 15 16 17 18 19 20 21 22 23 24 25 26 27 28 29 30 31 32 33 34 35 36 37 38 39 40 41 42 43 44 45 46 47 48 49 50

362
ASUS43 KIND 210709
RWRIN

WEATHER ROUNDUP FOR INDIANA
NATIONAL WEATHER SERVICE INDIANAPOLIS IN
200 AM EST SAT JAN 21 2017

NOTE: "FAIR" INDICATES FEW OR NO CLOUDS BELOW 12,000 FEET WITH NO
SIGNIFICANT WEATHER AND/OR OBSTRUCTIONS TO VISIBILITY.

* - STATION DOES NOT REPORT WEATHER SUCH AS PRECIPITATION OR FOG.

+ - STATION NOT QUALITY CONTROLLED BY THE NATIONAL WEATHER SERVICE.
    USE DATA WITH CAUTION...ESPECIALLY DEWPOINT AND RELATIVE
    HUMIDITY OBSERVATIONS.

INZ001>003-010>013-019-020-210800-
NORTHWEST INDIANA

CITY           SKY/WX    TMP DP  RH WIND       PRES   REMARKS
GARY /AIRPORT/ MOCLDY    50  47  90 S6        29.62S FOG
KNOX *+        CLOUDY    48  36  61 S8        29.64S
LA PORTE +     CLOUDY    47  46  98 S6        29.65S FOG
MICHIGAN CITY+ CLOUDY    48  48 100 S7        29.64S
MONTICELLO +   CLOUDY    53  49  86 SE5       29.64F
RENSSELAER +   CLOUDY    50  50 100 S6        29.63F
VALPARAISO     CLOUDY    49  48  97 SE6       29.63F FOG

$$

LMZ046-743>745-210800-
SOUTHERN LAKE MICHIGAN

STATION/POSITION TIME  TEMP    WIND        PRES    WAVE
                       AIR SEA DIR/SP/G            HT
                 (UTC) (F)     (DEG/KT/KT) (MB)    (FT)
BURNS HARBOR     0700   51     170/  9/ 20 1003.7
MICHIGAN CITY    0640   50     140/ 14/ 17   N/A

$$

INZ004-005-014>016-021>024-210800-
NORTH CENTRAL INDIANA

CITY           SKY/WX    TMP DP  RH WIND       PRES   REMARKS
GOSHEN         CLOUDY    48  44  86 S9        29.66F
LOGANSPORT +   CLOUDY    52  48  87 S8        29.66F
PERU/GRISSOM   CLOUDY    52  52 100 S9        29.65F
ROCHESTER +    CLOUDY    50  50 100 S6        29.66F
SOUTH BEND     CLOUDY    48  46  93 S9        29.66S
WARSAW +       CLOUDY    48  46  93 S3        29.67S

$$

INZ006>009-017-018-025>027-210800-
NORTHEAST INDIANA

CITY           SKY/WX    TMP DP  RH WIND       PRES   REMARKS
ANGOLA *+      CLOUDY    45  45 100 SE3       29.68F
AUBURN +       CLOUDY    46  45  93 CALM      29.69F FOG
FORT WAYNE     CLOUDY    51  46  83 S9        29.69F
HUNTINGTON +   CLOUDY    50  48  93 S6        29.69F
KENDALLVILLE + CLOUDY    46  46 100 SE8       29.68F FOG

$$

INZ028-029-035-036-043>045-051>053-210800-
WEST CENTRAL INDIANA

CITY           SKY/WX    TMP DP  RH WIND       PRES   REMARKS
CRAWFORDSVL +  CLOUDY    49  49 100 SE8       29.66S
GREENCASTLE +  MOCLDY    50  50 100 S3        29.67F
LAFAYETTE      CLOUDY    52  50  93 S7        29.65F
TERRE HAUTE    CLEAR     50  47  89 S3        29.66F

$$

INZ030>032-037>040-046>048-054>057-064-065-210800-
CENTRAL INDIANA

CITY           SKY/WX    TMP DP  RH WIND       PRES   REMARKS
CP ATTERBURY + PTCLDY    48  46  93 CALM      29.71S
FRANKFORT +    CLOUDY    54  51  91 S6        29.68F
GREENWOOD *+   CLOUDY    51  49  94 SE6       29.70S
INDIANAPOLIS   CLOUDY    51  49  92 SE8       29.68F
-EAGLE CREEK   CLOUDY    53  48  83 S5        29.68S
KOKOMO +       CLOUDY    51  49  92 S9        29.68F
MARION +       CLOUDY    48  46  93 S6        29.69F FOG
MT COMFORT *+  MOCLDY    50  46  87 S7        29.70S
SHELBYVILLE    PTCLDY    49  45  86 SE10      29.70S
ZIONSVILLE +   CLOUDY    50  48  94 S7        29.69S

$$

INZ033-034-041-042-049-050-058-059-210800-
EAST CENTRAL INDIANA

CITY           SKY/WX    TMP DP  RH WIND       PRES   REMARKS
MUNCIE         CLOUDY    54  48  80 S8        29.70S

$$

INZ060-061-067>069-081>083-085>088-210800-
SOUTHWEST INDIANA

CITY           SKY/WX    TMP DP  RH WIND       PRES   REMARKS
EVANSVILLE     FOG       45  44  97 CALM      29.70R VSB 1/4
HUNTINGBURG *+ PTCLDY    54  50  87 SE6       29.70S
WASHINGTON +   PTCLDY   N/A N/A N/A S8        29.68R

$$

INZ062-063-066-070>080-084-089>092-210800-
SOUTH CENTRAL AND SOUTHEAST INDIANA

CITY           SKY/WX    TMP DP  RH WIND       PRES   REMARKS
BLOOMINGTON    CLOUDY    52  48  86 SE9       29.69S
MADISON *+     MOCLDY    52  46  82 SE3       29.75S
NORTH VERNON + MOCLDY   N/A N/A N/A SE7       29.72F
SEYMOUR +      PTCLDY    50  48  93 SE3       29.72R

$$





USA.gov is the U.S. government's official web portal to all federal, state and local government web resources and services.